Weather Roundup
Issued by NWS

Home | Current Version | Previous Version | Graphics & Text | Print | Product List | Glossary Off
Versions: 1 2 3 4 5 6 7 8 9 10 11 12 13 14 15 16 17 18 19 20 21 22 23 24 25 26 27 28 29 30 31 32 33 34 35 36 37 38 39 40 41 42 43 44 45 46 47 48 49 50

000
NZUS93 KARX 012259
HRRWXR

CURRENT HOURLY OBSERVATIONS ACROSS
MUCH OF THE UPPER MISSISSIPPI VALLEY
NATIONAL WEATHER SERVICE LA CROSSE WI
600 PM CDT FRI AUG 01 2014


...SOUTHEAST MINNESOTA...


CITY           SKY/WX    TMP DP  RH WIND       PRES   REMARKS
ROCHESTER      NOT AVBL
ROCHESTER/MAYO NOT AVBL
WINONA         PTSUNNY   82  55  39 W8        30.04S
AUSTIN         SUNNY     79  57  47 NW7       30.08S
ALBERT LEA     NOT AVBL
DODGE CENTER   NOT AVBL
PRESTON        NOT AVBL
OWATONNA       SUNNY     81  57  44 W3        30.07F
FARIBAULT      SUNNY     84  52  32 SW3       30.06F
$$

...ELSEWHERE IN MINNESOTA...


CITY           SKY/WX    TMP DP  RH WIND       PRES   REMARKS
MINNEAPOLIS    NOT AVBL
INTNL FALLS    NOT AVBL
DULUTH         NOT AVBL
RED WING       SUNNY     84  55  37 W5        30.03S
REDWOOD FALLS  NOT AVBL
MANKATO        MOSUNNY   81  57  44 W7        30.07R
WORTHINGTON    SUNNY     81  55  41 E3        30.12S
FAIRMONT       SUNNY     82  46  28 N3        30.09S
$$

...SOUTHWEST WISCONSIN...


CITY           SKY/WX    TMP DP  RH WIND       PRES   REMARKS
LA CROSSE      NOT AVBL
PRAIRIE DU CHI NOT AVBL
BOSCOBEL       NOT AVBL
LONE ROCK      NOT AVBL
PLATTEVILLE    SUNNY     81  58  45 W5        30.07S
FORT MC COY    MOSUNNY   83  55  38 W6        30.06F
VIROQUA        FAIR      79  59  50 W3        30.08R
WIS DELLS      CLOUDY    71  52  50 CALM      30.08R THUNDER
$$

...ELSEWHERE IN WISCONSIN...


CITY           SKY/WX    TMP DP  RH WIND       PRES   REMARKS
MILWAUKEE      NOT AVBL
MADISON        HAIL      66  54  65 E5        30.09R
GREEN BAY      NOT AVBL
EAU CLAIRE     NOT AVBL
BLACK RVR FLS  FAIR      82  59  44 W7        30.04S
MEDFORD        MOSUNNY   76  58  54 NW6       30.07S
WAUSAU         NOT AVBL
WIS RAPIDS     CLOUDY    66  58  75 SE14G22   30.09F
MARSHFIELD     NOT AVBL
RICE LAKE      SUNNY     79  55  43 CALM      30.07S
$$

...NORTHEAST IOWA...


CITY           SKY/WX    TMP DP  RH WIND       PRES   REMARKS
WATERLOO       NOT AVBL
DUBUQUE        NOT AVBL
DECORAH        SUNNY     79  57  47 CALM      30.06S
MASON CITY     NOT AVBL
CHARLES CITY   SUNNY     79  61  53 NW6       30.08S
OELWEIN        SUNNY     81  63  54 NW5       30.07F
$$

...ELSEWHERE IN IOWA...


CITY           SKY/WX    TMP DP  RH WIND       PRES   REMARKS
DES MOINES     NOT AVBL
IOWA CITY      NOT AVBL
FORT DODGE     SUNNY     81  61  50 W5        30.09S
MARSHALLTOWN   NOT AVBL
CEDAR RAPIDS   NOT AVBL
$$

...NORTHERN ILLINOIS...


CITY           SKY/WX    TMP DP  RH WIND       PRES   REMARKS
CHICAGO-OHARE  PTSUNNY   76  58  53 S10       30.07R
DUPAGE         LGT RAIN  75  57  53 NE5       30.07S
CHICAGO-MIDWAY CLOUDY    77  59  53 S7        30.08R
MOLINE         NOT AVBL
ROCKFORD       NOT AVBL
STERLING       MOSUNNY   77  64  65 SE3       30.05S
PEORIA         LGT RAIN  67  62  84 S9        30.07F
$$

NOTE: "FAIR" INDICATES FEW OR NO CLOUDS BELOW 12,000 FEET WITH NO
SIGNIFICANT WEATHER AND/OR OBSTRUCTIONS TO VISIBILITY. WIND
SPEEDS ARE IN MILES-PER-HOUR.



USA.gov is the U.S. government's official web portal to all federal, state and local government web resources and services.